Samui, Thailand

5:44 AM +07 on October 18, 2018 (GMT +0700)
Samui

Weather History for VTSM - January, 2018

Change the Weather History Date:

Saturday, January 13, 2018

  Actual Average Record
Temperature  
Mean Temperature 81 °F -  
Max Temperature 84 °F - - ()
Min Temperature 78 °F - - ()
Cooling Degree Days 16    
Growing Degree Days 31 (Base 50)    
Moisture  
Dew Point 70 °F    
Average Humidity 69    
Maximum Humidity 78    
Minimum Humidity 62    
Precipitation  
Precipitation 0.00 in - - ()
Sea Level Pressure  
Sea Level Pressure 29.94 in    
Wind  
Wind Speed 10 mph ()    
Max Wind Speed 17 mph    
Max Gust Speed -    
Visibility 4.5 miles    
Events      
T = Trace of Precipitation, MM = Missing Value Source: Averaged Metar Reports

Daily Weather History Graph

Daily Weather History Graph

Search for Another Location

Airport or City:

Astronomy

Jan. 13, 2018 Rise Set
Actual Time 6:39 AM +07 6:16 PM +07
Civil Twilight 6:17 AM +07 6:39 PM +07
Nautical Twilight 5:51 AM +07 7:05 PM +07
Astronomical Twilight 5:25 AM +07 7:31 PM +07
Moon 3:25 AM +07 (1/13) 3:23 PM +07 (1/13)
Length of Visible Light 12h 22m
Length of Day
11h 37m
Waning Crescent, 13% of the Moon is Illuminated
Jan 13
Waning Crescent
Jan 17
New
Jan 25
First Quarter
Jan 31
Full
Feb 7
Last Quarter

Hourly Weather History & Observations

Time (+07) Temp. Heat Index Dew Point Humidity Pressure Visibility Wind Dir Wind Speed Gust Speed Precip Events Conditions
5:00 AM 78.8 °F - 71.6 °F 78% 29.92 in 4.3 mi North 3.5 mph - N/A   Partly Cloudy
5:30 AM 78.8 °F - 71.6 °F 78% 29.92 in 4.3 mi NNE 3.5 mph - N/A   Partly Cloudy
6:00 AM 78.8 °F - 71.6 °F 78% 29.92 in 4.3 mi NNE 9.2 mph - N/A   Partly Cloudy
6:30 AM 78.8 °F - 71.6 °F 78% 29.92 in 4.3 mi North 12.7 mph - N/A   Partly Cloudy
7:00 AM 78.8 °F - 71.6 °F 78% 29.95 in 4.3 mi NNE 11.5 mph - N/A   Partly Cloudy
8:00 AM 80.6 °F 84.6 °F 71.6 °F 74% 29.95 in 4.3 mi NNE 10.4 mph - N/A   Partly Cloudy
8:30 AM 80.6 °F 84.6 °F 71.6 °F 74% 29.98 in 4.3 mi NNE 10.4 mph - N/A   Partly Cloudy
9:00 AM 80.6 °F 84.6 °F 71.6 °F 74% 29.98 in 4.3 mi North 15.0 mph - N/A   Partly Cloudy
9:30 AM 82.4 °F 87.2 °F 71.6 °F 70% 30.01 in 4.3 mi North 12.7 mph - N/A   Partly Cloudy
10:00 AM 82.4 °F 87.2 °F 71.6 °F 70% 30.01 in 4.3 mi North 17.3 mph - N/A   Partly Cloudy
10:30 AM 82.4 °F 87.2 °F 71.6 °F 70% 29.98 in 4.3 mi NNE 13.8 mph - N/A   Partly Cloudy
11:00 AM 82.4 °F 86.3 °F 69.8 °F 66% 29.98 in 5.0 mi NNE 12.7 mph - N/A   Partly Cloudy
11:30 AM 84.2 °F 88.4 °F 69.8 °F 62% 29.98 in 5.0 mi NNE 17.3 mph - N/A   Partly Cloudy
12:00 PM 84.2 °F 88.4 °F 69.8 °F 62% 29.98 in 5.0 mi NNE 15.0 mph - N/A   Partly Cloudy
12:30 PM 84.2 °F 88.4 °F 69.8 °F 62% 29.95 in 5.0 mi North 17.3 mph - N/A   Partly Cloudy
1:00 PM 84.2 °F 88.4 °F 69.8 °F 62% 29.95 in 5.0 mi North 17.3 mph - N/A   Partly Cloudy
1:30 PM 84.2 °F 88.4 °F 69.8 °F 62% 29.92 in 5.0 mi North 17.3 mph - N/A   Partly Cloudy
2:00 PM 84.2 °F 88.4 °F 69.8 °F 62% 29.89 in 5.0 mi North 16.1 mph - N/A   Partly Cloudy
2:30 PM 84.2 °F 88.4 °F 69.8 °F 62% 29.89 in 5.0 mi NNE 13.8 mph - N/A   Partly Cloudy
3:00 PM 84.2 °F 88.4 °F 69.8 °F 62% 29.89 in 5.0 mi NNE 13.8 mph - N/A   Partly Cloudy
3:30 PM 82.4 °F 85.4 °F 68.0 °F 62% 29.89 in 5.0 mi NNE 13.8 mph - N/A   Partly Cloudy
4:00 PM 82.4 °F 85.4 °F 68.0 °F 62% 29.89 in 5.0 mi North 13.8 mph - N/A   Partly Cloudy
4:30 PM 82.4 °F 86.3 °F 69.8 °F 66% 29.89 in 5.0 mi NE 11.5 mph - N/A   Partly Cloudy
5:00 PM 80.6 °F 83.2 °F 68.0 °F 65% 29.89 in 4.3 mi NNE 13.8 mph - N/A   Partly Cloudy
5:30 PM 80.6 °F 83.2 °F 68.0 °F 65% 29.89 in 4.3 mi NNE 11.5 mph - N/A   Partly Cloudy
6:00 PM 80.6 °F 83.2 °F 68.0 °F 65% 29.89 in 4.3 mi ENE 8.1 mph - N/A   Partly Cloudy
6:30 PM 78.8 °F - 69.8 °F 74% 29.92 in 4.3 mi NNE 5.8 mph - N/A   Partly Cloudy
7:00 PM 78.8 °F - 69.8 °F 74% 29.92 in 4.3 mi NNE 5.8 mph - N/A   Partly Cloudy
7:30 PM 78.8 °F - 69.8 °F 74% 29.92 in 4.3 mi ENE 6.9 mph - N/A   Partly Cloudy
8:00 PM 78.8 °F - 69.8 °F 74% 29.95 in 4.3 mi NNE 5.8 mph - N/A   Partly Cloudy
8:30 PM 78.8 °F - 69.8 °F 74% 29.95 in 4.3 mi ENE 5.8 mph - N/A   Partly Cloudy
9:00 PM 78.8 °F - 69.8 °F 74% 29.98 in 4.3 mi NNE 5.8 mph - N/A   Partly Cloudy
9:30 PM 78.8 °F - 69.8 °F 74% 29.95 in 4.3 mi NNE 5.8 mph - N/A   Partly Cloudy
10:00 PM 78.8 °F - 69.8 °F 74% 29.95 in 4.3 mi NNE 5.8 mph - N/A   Partly Cloudy